Greers Ferry Lake Weather Center

Moon Phase Calendar



Greers Ferry Lake Water Level
Online Cameras

 


      

Current Conditions in Heber Springs
4/21/2021 3:30:19 PM

59°F
Feels Like 56
Clouds
Humidity
33%
Pressure
30.21"
Wind
9.2 mph (S)
Dew Point
30°F
UV Index
4/10 (Moderate)
Visibility
6 mi

Hourly Forecast

Date & Time Wed, Apr 21
3:00 PM
Wed, Apr 21
4:00 PM
Wed, Apr 21
5:00 PM
Wed, Apr 21
6:00 PM
Wed, Apr 21
7:00 PM
Wed, Apr 21
8:00 PM
Wed, Apr 21
9:00 PM
Wed, Apr 21
10:00 PM
Wed, Apr 21
11:00 PM
Thu, Apr 22
12:00 AM
Thu, Apr 22
1:00 AM
Thu, Apr 22
2:00 AM
Thu, Apr 22
3:00 AM
Thu, Apr 22
4:00 AM
Thu, Apr 22
5:00 AM
Thu, Apr 22
6:00 AM
Thu, Apr 22
7:00 AM
Thu, Apr 22
8:00 AM
Thu, Apr 22
9:00 AM
Thu, Apr 22
10:00 AM
Thu, Apr 22
11:00 AM
Thu, Apr 22
12:00 PM
Thu, Apr 22
1:00 PM
Thu, Apr 22
2:00 PM
Thu, Apr 22
3:00 PM
Thu, Apr 22
4:00 PM
Thu, Apr 22
5:00 PM
Thu, Apr 22
6:00 PM
Thu, Apr 22
7:00 PM
Thu, Apr 22
8:00 PM
Thu, Apr 22
9:00 PM
Thu, Apr 22
10:00 PM
Thu, Apr 22
11:00 PM
Fri, Apr 23
12:00 AM
Fri, Apr 23
1:00 AM
Fri, Apr 23
2:00 AM
Fri, Apr 23
3:00 AM
Fri, Apr 23
4:00 AM
Fri, Apr 23
5:00 AM
Fri, Apr 23
6:00 AM
Fri, Apr 23
7:00 AM
Fri, Apr 23
8:00 AM
Fri, Apr 23
9:00 AM
Fri, Apr 23
10:00 AM
Fri, Apr 23
11:00 AM
Fri, Apr 23
12:00 PM
Fri, Apr 23
1:00 PM
Fri, Apr 23
2:00 PM
Condition
Clouds

Clouds

Clouds

Clouds

Clouds

Clouds

Clouds

Clouds

Clouds

Clouds

Clouds

Clouds

Clouds

Clouds

Clouds

Clouds

Clouds

Clouds

Clouds

Clouds

Clouds

Clouds

Clouds

Clear

Clear

Clear

Clear

Clouds

Clouds

Clouds

Clouds

Clouds

Clouds

Clouds

Clouds

Clouds

Clouds

Clouds

Clouds

Clouds

Clouds

Clouds

Clouds

Clouds

Clouds

Clouds

Rain

Rain
Temperature 59°F59°F59°F58°F55°F49°F43°F43°F42°F42°F40°F39°F38°F37°F36°F35°F36°F42°F47°F52°F56°F59°F61°F61°F62°F61°F60°F58°F55°F51°F48°F47°F50°F50°F50°F47°F48°F49°F49°F49°F48°F49°F50°F55°F52°F55°F56°F55°F
Feels Like 56°F56°F56°F55°F52°F46°F41°F40°F39°F38°F37°F36°F35°F34°F33°F32°F33°F42°F46°F48°F53°F56°F58°F59°F59°F59°F58°F56°F52°F49°F46°F44°F48°F48°F48°F45°F46°F47°F48°F47°F46°F47°F49°F53°F51°F54°F56°F54°F
Cloudiness 49%40%46%54%60%68%67%78%80%84%81%98%81%82%81%81%69%15%18%16%14%26%25%7%7%9%10%22%23%100%92%95%96%97%97%100%100%100%100%100%93%100%99%96%97%97%98%100%
Visibility 6 mi6 mi6 mi6 mi6 mi6 mi6 mi6 mi6 mi6 mi6 mi6 mi6 mi6 mi6 mi6 mi6 mi6 mi6 mi6 mi6 mi6 mi6 mi6 mi6 mi6 mi6 mi6 mi6 mi6 mi6 mi6 mi6 mi6 mi6 mi6 mi6 mi6 mi6 mi6 mi6 mi6 mi6 mi6 mi6 mi6 mi6 mi6 mi
Precipitation 0%0%0%0%0%0%0%0%0%0%0%0%0%0%0%0%0%0%0%0%0%0%0%0%0%0%0%0%0%0%0%0%0%0%0%0%0%0%0%0%0%0%0%0%0%8%20%68%
Humidity 32%33%33%37%43%53%63%65%67%69%74%73%73%72%74%75%74%60%47%39%34%32%31%32%34%37%41%48%59%63%67%67%59%59%62%69%68%68%69%71%76%75%74%70%82%78%84%91%
Dew Point 30°F30°F30°F32°F33°F32°F31°F31°F31°F32°F32°F31°F29°F29°F28°F28°F28°F28°F28°F27°F28°F29°F30°F31°F33°F34°F36°F38°F40°F39°F37°F36°F36°F36°F37°F37°F38°F38°F39°F39°F40°F41°F42°F44°F46°F48°F51°F51°F
Pressure 30.21"30.21"30.21"30.21"30.21"30.21"30.24"30.27"30.27"30.27"30.27"30.27"30.27"30.27"30.27"30.3"30.3"30.33"30.33"30.33"30.3"30.27"30.24"30.21"30.18"30.15"30.12"30.12"30.12"30.12"30.12"30.12"30.12"30.12"30.12"30.09"30.06"30.06"30.06"30.06"30.06"30.09"30.06"30.03"30.03"30"30"29.97"
Wind Speed 9.6 mph11.1 mph11.5 mph9.2 mph8.5 mph5.4 mph4.5 mph4.3 mph4.7 mph4.9 mph4.7 mph4.6 mph4.3 mph4.4 mph4 mph3.8 mph3.3 mph2.9 mph3.3 mph2.9 mph1.4 mph0.9 mph3 mph4.8 mph5.9 mph6.8 mph7.5 mph8.3 mph7 mph6.1 mph5.7 mph5.4 mph5.2 mph5.1 mph5.1 mph4.6 mph4.8 mph4.7 mph4.6 mph4.8 mph4.1 mph4.8 mph5.9 mph8.4 mph6.9 mph8.6 mph9.2 mph8.1 mph
Wind
Direction
298°
WNW
310°
NW
320°
NW
330°
NNW
342°
NNW
344°
NNW
340°
NNW
338°
NNW
341°
NNW
352°
N
353°
N
356°
N
357°
N
360°
N
359°
N

N
11°
N
23°
NNE
38°
NE
47°
NE
61°
ENE
122°
ESE
159°
SSE
179°
S
181°
S
172°
S
163°
SSE
161°
SSE
141°
SE
129°
SE
123°
ESE
127°
SE
134°
SE
146°
SE
136°
SE
112°
ESE
108°
ESE
114°
ESE
118°
ESE
113°
ESE
106°
ESE
125°
SE
136°
SE
160°
SSE
149°
SSE
152°
SSE
164°
SSE
159°
SSE

Daily Forecast

Date High Low Precip. Humidity
Today
Apr 21

Clouds
59 °F
30 °F
0%
31%
Thursday
Apr 22

Clouds
62 °F
35 °F
0%
31%
Friday
Apr 23

Rain
56 °F
47 °F
100%
84%
Saturday
Apr 24

Rain
67 °F
55 °F
100%
69%
Sunday
Apr 25

Clear
69 °F
45 °F
0%
45%
Monday
Apr 26

Clouds
78 °F
50 °F
0%
50%
Tuesday
Apr 27

Rain
71 °F
61 °F
100%
90%
Wednesday
Apr 28

Rain
69 °F
54 °F
100%
55%
Thursday
Apr 29

Clear
75 °F
45 °F
0%
35%
Friday
Apr 30

Clouds
81 °F
55 °F
0%
44%
Saturday
May 1

Clouds
80 °F
60 °F
0%
46%
Sunday
May 2

Rain
80 °F
69 °F
90%
78%
Monday
May 3

Rain
73 °F
56 °F
100%
96%
Tuesday
May 4

Clouds
56 °F
50 °F
30%
76%
Wednesday
May 5

Clouds
72 °F
43 °F
0%
32%
Thursday
May 6

Clouds
77 °F
49 °F
0%
41%

Temperature 8-14 Day Outlook



Precipitation 8-14 Day Outlook




Quick Links
Greers Ferry Lake News
Greers Ferry Lake Photos
Greers Ferry Lake Videos




About Us
Contact Us
Site Map
Search Site
Advertise With Us
   
GreersFerry.USLakes.info
THE GREERS FERRY LAKE WEBSITE

Copyright 2021, Lakes Online
Privacy    |    Legal